Station Historical Data
Daily Summary for February 17, 2017 Units:  Metric    English   Both
« Previous Day
Next Day »
Daily Weekly Monthly Yearly Custom
  High: Low: Average:
Temperature: 3.9 °C -8.1 °C -1.6 °C
Dew Point: -3.5 °C -10.4 °C -6.8 °C
Humidity: 85% 50% 68%
Wind Speed: 9.7km/h 0km/h 2.4km/h
Wind Gust: 19.3km/h - -
Wind- - SSW
Pressure: 1015.1 hPa 1007.3 hPa -
Precipitation: 0 mm    
Historical Graphs
 
 
Tabular Data for February 17, 2017
Time Temperature Dew Point Pressure Wind Wind Speed Wind Gust Humidity Rainfall Rate (Hourly)
00:04 -5.2 °C -8.9 °C 1014.8 hPa WSW 3.2 km/h 9.7 km/h 75% 0 mm
00:09 -5.2 °C -8.9 °C 1015.1 hPa WSW 4.8 km/h 9.7 km/h 75% 0 mm
00:14 -5.2 °C -8.9 °C 1015.1 hPa West 8 km/h 11.3 km/h 75% 0 mm
00:19 -5.2 °C -8.9 °C 1015.1 hPa West 6.4 km/h 12.9 km/h 75% 0 mm
00:24 -5.2 °C -8.8 °C 1015.1 hPa West 6.4 km/h 12.9 km/h 76% 0 mm
00:29 -5.2 °C -8.7 °C 1015.1 hPa WNW 6.4 km/h 11.3 km/h 76% 0 mm
00:34 -5.2 °C -8.8 °C 1015.1 hPa West 8 km/h 19.3 km/h 76% 0 mm
00:39 -5.2 °C -8.8 °C 1015.1 hPa NE 8 km/h 14.5 km/h 76% 0 mm
00:44 -5.2 °C -8.9 °C 1015.1 hPa West 6.4 km/h 12.9 km/h 75% 0 mm
00:49 -5.2 °C -8.9 °C 1015.1 hPa NW 8 km/h 16.1 km/h 75% 0 mm
00:54 -5.3 °C -9 °C 1014.8 hPa NW 8 km/h 16.1 km/h 75% 0 mm
00:59 -5.3 °C -8.9 °C 1014.8 hPa NW 6.4 km/h 12.9 km/h 76% 0 mm
01:04 -5.3 °C -8.9 °C 1014.8 hPa NW 4.8 km/h 14.5 km/h 76% 0 mm
01:09 -5.3 °C -8.9 °C 1014.8 hPa NW 9.7 km/h 17.7 km/h 76% 0 mm
01:14 -5.4 °C -8.9 °C 1014.8 hPa NW 3.2 km/h 14.5 km/h 76% 0 mm
01:19 -5.4 °C -9 °C 1014.8 hPa NNW 4.8 km/h 12.9 km/h 76% 0 mm
01:24 -5.4 °C -9 °C 1014.8 hPa NNW 6.4 km/h 12.9 km/h 76% 0 mm
01:29 -5.5 °C -9.1 °C 1014.8 hPa NW 6.4 km/h 16.1 km/h 76% 0 mm
01:34 -5.4 °C -9 °C 1014.8 hPa North 3.2 km/h 11.3 km/h 76% 0 mm
01:39 -5.4 °C -8.8 °C 1014.8 hPa NW 4.8 km/h 11.3 km/h 77% 0 mm
01:44 -5.4 °C -8.8 °C 1014.8 hPa NNW 3.2 km/h 8 km/h 77% 0 mm
01:49 -5.4 °C -8.8 °C 1014.8 hPa WNW 1.6 km/h 11.3 km/h 77% 0 mm
01:54 -5.4 °C -8.8 °C 1014.8 hPa NW 4.8 km/h 11.3 km/h 77% 0 mm
01:59 -5.3 °C -8.7 °C 1014.8 hPa NW 4.8 km/h 9.7 km/h 77% 0 mm
02:04 -5.3 °C -8.8 °C 1014.8 hPa NW 4.8 km/h 11.3 km/h 76% 0 mm
02:09 -5.3 °C -8.8 °C 1014.8 hPa NW 3.2 km/h 11.3 km/h 76% 0 mm
02:14 -5.3 °C -8.8 °C 1014.8 hPa NW 4.8 km/h 11.3 km/h 76% 0 mm
02:19 -5.2 °C -8.8 °C 1014.8 hPa NW 8 km/h 9.7 km/h 76% 0 mm
02:24 -5.2 °C -8.8 °C 1014.8 hPa NW 4.8 km/h 11.3 km/h 76% 0 mm
02:29 -5.2 °C -8.7 °C 1014.8 hPa NW 4.8 km/h 11.3 km/h 76% 0 mm
02:34 -5.2 °C -8.7 °C 1014.8 hPa NW 4.8 km/h 11.3 km/h 76% 0 mm
02:39 -5.2 °C -8.7 °C 1014.8 hPa NW 9.7 km/h 12.9 km/h 76% 0 mm
02:44 -5.2 °C -8.8 °C 1014.8 hPa WNW 4.8 km/h 12.9 km/h 76% 0 mm
02:49 -5.3 °C -8.8 °C 1014.4 hPa NNW 8 km/h 12.9 km/h 76% 0 mm
02:54 -5.3 °C -8.8 °C 1014.4 hPa NW 4.8 km/h 12.9 km/h 76% 0 mm
02:59 -5.3 °C -8.9 °C 1014.4 hPa WNW 4.8 km/h 11.3 km/h 76% 0 mm
03:04 -5.4 °C -8.9 °C 1014.4 hPa NW 4.8 km/h 11.3 km/h 76% 0 mm
03:09 -5.4 °C -9 °C 1014.4 hPa WNW 1.6 km/h 6.4 km/h 76% 0 mm
03:14 -5.5 °C -8.9 °C 1014.4 hPa NW 3.2 km/h 4.8 km/h 77% 0 mm
03:19 -5.6 °C -9.1 °C 1014.4 hPa WNW 3.2 km/h 8 km/h 76% 0 mm
03:24 -5.6 °C -9 °C 1014.4 hPa WNW 3.2 km/h 8 km/h 77% 0 mm
03:29 -5.7 °C -9.1 °C 1014.4 hPa WNW 4.8 km/h 6.4 km/h 77% 0 mm
03:34 -5.7 °C -9.1 °C 1014.4 hPa NNW 3.2 km/h 9.7 km/h 77% 0 mm
03:39 -5.7 °C -9.1 °C 1014.8 hPa NNW 3.2 km/h 4.8 km/h 77% 0 mm
03:44 -5.7 °C -9.1 °C 1014.8 hPa NW 3.2 km/h 6.4 km/h 77% 0 mm
03:49 -5.8 °C -9.2 °C 1014.4 hPa NW 3.2 km/h 4.8 km/h 77% 0 mm
03:54 -5.9 °C -9.3 °C 1014.8 hPa NW 1.6 km/h 4.8 km/h 77% 0 mm
03:59 -6.1 °C -9.3 °C 1014.8 hPa NW 1.6 km/h 4.8 km/h 78% 0 mm
04:04 -6.3 °C -9.5 °C 1014.8 hPa NNW 1.6 km/h 4.8 km/h 78% 0 mm
04:09 -6.4 °C -9.6 °C 1014.8 hPa NW 1.6 km/h 4.8 km/h 78% 0 mm
04:14 -6.6 °C -9.6 °C 1014.8 hPa Calm     79% 0 mm
04:19 -6.8 °C -9.8 °C 1014.8 hPa Calm     79% 0 mm
04:24 -6.9 °C -9.8 °C 1014.8 hPa Calm     80% 0 mm
04:29 -7.1 °C -9.9 °C 1014.8 hPa Calm     80% 0 mm
04:34 -7.3 °C -10 °C 1014.8 hPa Calm     81% 0 mm
04:39 -7.4 °C -10.2 °C 1014.8 hPa Calm     81% 0 mm
04:44 -7.6 °C -10.2 °C 1014.4 hPa Calm     82% 0 mm
04:49 -7.8 °C -10.3 °C 1014.4 hPa Calm     82% 0 mm
04:54 -7.8 °C -10.2 °C 1014.1 hPa Calm     83% 0 mm
04:59 -7.8 °C -10.2 °C 1014.1 hPa Calm     83% 0 mm
05:04 -8.1 °C -10.4 °C 1014.1 hPa Calm     83% 0 mm
05:09 -8.1 °C -10.3 °C 1014.1 hPa Calm     84% 0 mm
05:14 -8.1 °C -10.3 °C 1014.1 hPa Calm     84% 0 mm
05:19 -8 °C -10.1 °C 1014.1 hPa Calm     85% 0 mm
05:24 -7.9 °C -9.9 °C 1014.1 hPa Calm     85% 0 mm
05:29 -7.8 °C -9.8 °C 1014.1 hPa Calm     85% 0 mm
05:39 -7.6 °C -9.7 °C 1013.8 hPa Calm     85% 0 mm
05:44 -7.5 °C -9.6 °C 1014.1 hPa Calm     85% 0 mm
05:49 -7.3 °C -9.4 °C 1014.1 hPa Calm     85% 0 mm
05:54 -7.3 °C -9.6 °C 1014.1 hPa Calm     84% 0 mm
05:59 -7.3 °C -9.5 °C 1014.1 hPa Calm     84% 0 mm
06:04 -7.3 °C -9.5 °C 1014.1 hPa Calm     84% 0 mm
06:09 -7.2 °C -9.4 °C 1014.1 hPa Calm     84% 0 mm
06:14 -7.1 °C -9.2 °C 1013.8 hPa Calm     85% 0 mm
06:19 -7 °C -9.1 °C 1013.8 hPa Calm     85% 0 mm
06:24 -6.9 °C -9 °C 1013.8 hPa Calm     85% 0 mm
06:29 -6.7 °C -8.8 °C 1013.8 hPa Calm     85% 0 mm
06:34 -6.5 °C -8.8 °C 1013.8 hPa Calm     84% 0 mm
06:39 -6.4 °C -8.7 °C 1013.8 hPa Calm     84% 0 mm
06:44 -6.3 °C -8.6 °C 1013.8 hPa Calm     84% 0 mm
06:49 -6.2 °C -8.6 °C 1013.8 hPa Calm     83% 0 mm
06:54 -6.2 °C -8.6 °C 1013.8 hPa Calm     83% 0 mm
06:59 -6.1 °C -8.7 °C 1014.1 hPa Calm     82% 0 mm
07:04 -6.1 °C -8.6 °C 1013.8 hPa Calm     82% 0 mm
07:09 -6 °C -8.6 °C 1013.8 hPa Calm     82% 0 mm
07:14 -5.9 °C -8.7 °C 1014.1 hPa Calm     81% 0 mm
07:19 -5.8 °C -8.6 °C 1014.1 hPa Calm     81% 0 mm
07:24 -5.8 °C -8.5 °C 1014.1 hPa Calm     81% 0 mm
07:29 -5.8 °C -8.5 °C 1014.1 hPa Calm     81% 0 mm
07:34 -5.7 °C -8.4 °C 1014.1 hPa Calm     81% 0 mm
07:39 -5.7 °C -8.6 °C 1014.1 hPa Calm     80% 0 mm
07:44 -5.7 °C -8.6 °C 1014.1 hPa Calm     80% 0 mm
07:49 -5.6 °C -8.4 °C 1014.4 hPa Calm     80% 0 mm
07:54 -5.6 °C -8.4 °C 1014.4 hPa South 3.2 km/h 4.8 km/h 80% 0 mm
07:59 -5.7 °C -8.6 °C 1014.4 hPa South 1.6 km/h 4.8 km/h 80% 0 mm
08:04 -5.7 °C -8.6 °C 1014.4 hPa South 1.6 km/h 3.2 km/h 80% 0 mm
08:09 -5.7 °C -8.6 °C 1014.8 hPa South 1.6 km/h 4.8 km/h 80% 0 mm
08:14 -5.6 °C -8.5 °C 1014.8 hPa South 1.6 km/h 4.8 km/h 80% 0 mm
08:19 -5.4 °C -8.3 °C 1014.8 hPa SE 1.6 km/h 6.4 km/h 80% 0 mm
08:24 -5.3 °C -8.4 °C 1014.8 hPa SE 3.2 km/h 4.8 km/h 79% 0 mm
08:29 -5.2 °C -8.4 °C 1014.8 hPa SSE 4.8 km/h 4.8 km/h 78% 0 mm
08:34 -5.1 °C -8.3 °C 1014.4 hPa SSE 1.6 km/h 6.4 km/h 78% 0 mm
08:39 -4.9 °C -8.1 °C 1014.8 hPa SSE 3.2 km/h 6.4 km/h 78% 0 mm
08:44 -4.8 °C -8.2 °C 1014.8 hPa SSE 1.6 km/h 4.8 km/h 77% 0 mm
08:49 -4.6 °C -8.2 °C 1014.8 hPa SE 1.6 km/h 6.4 km/h 76% 0 mm
08:54 -4.4 °C -8.1 °C 1014.8 hPa SE 1.6 km/h 6.4 km/h 76% 0 mm
08:59 -4.4 °C -8.1 °C 1014.4 hPa SSE 1.6 km/h 6.4 km/h 76% 0 mm
09:04 -4.3 °C -8.1 °C 1014.4 hPa SSE 3.2 km/h 6.4 km/h 75% 0 mm
09:09 -4.1 °C -7.9 °C 1014.4 hPa SSE 3.2 km/h 6.4 km/h 75% 0 mm
09:14 -3.9 °C -7.8 °C 1014.4 hPa Calm   4.8 km/h 74% 0 mm
09:19 -3.8 °C -7.7 °C 1014.4 hPa ESE 1.6 km/h 4.8 km/h 74% 0 mm
09:24 -3.7 °C -7.8 °C 1014.4 hPa SE 1.6 km/h 6.4 km/h 73% 0 mm
09:29 -3.7 °C -7.8 °C 1014.4 hPa SSE 1.6 km/h 6.4 km/h 73% 0 mm
09:34 -3.7 °C -7.8 °C 1014.4 hPa NE 3.2 km/h 4.8 km/h 73% 0 mm
09:39 -3.4 °C -7.6 °C 1014.4 hPa East 3.2 km/h 6.4 km/h 73% 0 mm
09:44 -3 °C -7.3 °C 1014.8 hPa Calm   4.8 km/h 72% 0 mm
09:49 -2.9 °C -7.4 °C 1014.8 hPa NNW 1.6 km/h 4.8 km/h 71% 0 mm
09:54 -2.9 °C -7.7 °C 1015.1 hPa SSW 3.2 km/h 8 km/h 70% 0 mm
09:59 -3.1 °C -7.4 °C 1015.1 hPa SW 3.2 km/h 8 km/h 72% 0 mm
10:04 -2.8 °C -7.7 °C 1014.8 hPa SW 1.6 km/h 4.8 km/h 69% 0 mm
10:09 -2.4 °C -6.8 °C 1014.8 hPa SSW 1.6 km/h 6.4 km/h 72% 0 mm
10:14 -2.4 °C -7.2 °C 1014.8 hPa SSW 3.2 km/h 9.7 km/h 70% 0 mm
10:19 -2.2 °C -6.8 °C 1014.8 hPa SSE 3.2 km/h 9.7 km/h 71% 0 mm
10:24 -2.3 °C -7.4 °C 1014.8 hPa South 3.2 km/h 8 km/h 68% 0 mm
10:29 -2.1 °C -6.8 °C 1014.4 hPa South 3.2 km/h 11.3 km/h 70% 0.25 mm
10:34 -2.1 °C -6.8 °C 1014.4 hPa South 3.2 km/h 11.3 km/h 70% 0.25 mm
10:39 -1.8 °C -6.7 °C 1014.4 hPa South 4.8 km/h 11.3 km/h 69% 0.25 mm
10:44 -1.4 °C -6.7 °C 1014.4 hPa SW 3.2 km/h 8 km/h 67% 0.25 mm
10:49 -1.5 °C -6.8 °C 1014.4 hPa SSW 4.8 km/h 9.7 km/h 67% 0.25 mm
10:54 -1.2 °C -6.4 °C 1014.4 hPa SSE 9.7 km/h 11.3 km/h 68% 0.25 mm
10:59 -0.9 °C -6.4 °C 1014.1 hPa South 3.2 km/h 11.3 km/h 66% 0.25 mm
11:04 -1 °C -6.8 °C 1014.1 hPa SW 1.6 km/h 12.9 km/h 65% 0.25 mm
11:09 -0.9 °C -6.9 °C 1014.1 hPa South 3.2 km/h 12.9 km/h 64% 0.25 mm
11:14 -0.8 °C -6.8 °C 1014.1 hPa SSW 3.2 km/h 8 km/h 64% 0.25 mm
11:24 -0.4 °C -6.6 °C 1013.8 hPa SSW 4.8 km/h 11.3 km/h 63% 0.25 mm
11:29 -0.4 °C -5.9 °C 1013.8 hPa South 4.8 km/h 9.7 km/h 66% 0 mm
11:34 -0.2 °C -5.6 °C 1014.1 hPa West 6.4 km/h 8 km/h 67% 0 mm
11:39 0.2 °C -5.8 °C 1014.1 hPa West 4.8 km/h 14.5 km/h 64% 0 mm
11:44 0.1 °C -5.9 °C 1014.1 hPa SW 3.2 km/h 8 km/h 64% 0 mm
11:49 0.1 °C -5.9 °C 1014.1 hPa WSW 8 km/h 11.3 km/h 64% 0 mm
11:54 -0.2 °C -6.4 °C 1014.1 hPa SW 6.4 km/h 12.9 km/h 63% 0 mm
11:59 -0.4 °C -6.4 °C 1014.1 hPa WSW 3.2 km/h 8 km/h 64% 0 mm
12:04 0.4 °C -5.6 °C 1013.8 hPa SW 6.4 km/h 12.9 km/h 64% 0 mm
12:09 0.4 °C -5.2 °C 1013.8 hPa West 6.4 km/h 11.3 km/h 66% 0 mm
12:14 0.7 °C -6 °C 1013.8 hPa West 4.8 km/h 11.3 km/h 61% 0 mm
12:19 0.9 °C -4.9 °C 1013.4 hPa WNW 4.8 km/h 9.7 km/h 65% 0 mm
12:24 0.5 °C -5.9 °C 1013.4 hPa West 3.2 km/h 8 km/h 62% 0 mm
12:29 0.4 °C -5.4 °C 1013.1 hPa SSW 3.2 km/h 12.9 km/h 65% 0 mm
12:34 0.8 °C -5.5 °C 1012.8 hPa SW 4.8 km/h 12.9 km/h 63% 0 mm
12:39 0.4 °C -6 °C 1012.8 hPa SW 4.8 km/h 9.7 km/h 62% 0 mm
12:44 0.4 °C -5.6 °C 1012.4 hPa NNE 3.2 km/h 6.4 km/h 64% 0 mm
12:49 0.6 °C -5.6 °C 1012.4 hPa North 1.6 km/h 6.4 km/h 63% 0 mm
12:54 1 °C -5.7 °C 1012.8 hPa SW 4.8 km/h 9.7 km/h 61% 0 mm
12:59 1.1 °C -5.8 °C 1012.8 hPa SSW 4.8 km/h 8 km/h 60% 0 mm
13:04 1.1 °C -5.8 °C 1012.8 hPa SSW 3.2 km/h 8 km/h 60% 0 mm
13:09 1.4 °C -6.2 °C 1012.8 hPa North 4.8 km/h 4.8 km/h 57% 0 mm
13:14 1.3 °C -5.7 °C 1012.8 hPa NW 1.6 km/h 6.4 km/h 60% 0 mm
13:19 1.5 °C -6.1 °C 1012.4 hPa WNW 3.2 km/h 8 km/h 57% 0 mm
13:24 1.3 °C -6.8 °C 1012.4 hPa WSW 4.8 km/h 11.3 km/h 55% 0 mm
13:29 1.6 °C -6.2 °C 1012.4 hPa WSW 4.8 km/h 11.3 km/h 56% 0 mm
13:34 1.3 °C -6.9 °C 1012.1 hPa WSW 3.2 km/h 9.7 km/h 54% 0 mm
13:39 1.6 °C -6.1 °C 1012.1 hPa WSW 3.2 km/h 9.7 km/h 57% 0 mm
13:44 1.9 °C -6.9 °C 1012.1 hPa West 3.2 km/h 9.7 km/h 52% 0 mm
13:49 2.2 °C -6.2 °C 1012.1 hPa SSE 3.2 km/h 8 km/h 54% 0 mm
13:54 1.9 °C -6.2 °C 1012.1 hPa Calm   6.4 km/h 55% 0 mm
13:59 2.3 °C -6.8 °C 1011.7 hPa SSW 3.2 km/h 8 km/h 51% 0 mm
14:04 2.3 °C -5.8 °C 1011.7 hPa SSW 3.2 km/h 8 km/h 55% 0 mm
14:09 2.2 °C -6.9 °C 1011.4 hPa ESE 4.8 km/h 6.4 km/h 51% 0 mm
14:14 2.3 °C -6.1 °C 1011.4 hPa SSE 3.2 km/h 11.3 km/h 54% 0 mm
14:19 2.1 °C -6.6 °C 1011.4 hPa Calm   4.8 km/h 53% 0 mm
14:24 2.9 °C -5.1 °C 1011.4 hPa West 1.6 km/h 4.8 km/h 56% 0 mm
14:29 2.6 °C -6.5 °C 1011.7 hPa West 1.6 km/h 4.8 km/h 51% 0 mm
14:34 2.9 °C -6 °C 1011.4 hPa WSW 1.6 km/h 6.4 km/h 52% 0 mm
14:39 2.7 °C -5.7 °C 1011.7 hPa SW 1.6 km/h 8 km/h 54% 0 mm
14:49 3.1 °C -5.4 °C 1011.7 hPa WSW 3.2 km/h 8 km/h 54% 0 mm
14:54 2.9 °C -5.3 °C 1011.7 hPa SSE 4.8 km/h 6.4 km/h 55% 0 mm
14:59 2.8 °C -5.6 °C 1011.7 hPa SSW 1.6 km/h 6.4 km/h 54% 0 mm
15:04 2.8 °C -5.3 °C 1011.7 hPa SW 8 km/h 9.7 km/h 55% 0 mm
15:09 3.3 °C -4.6 °C 1011.4 hPa West 3.2 km/h 8 km/h 56% 0 mm
15:14 3.2 °C -5.5 °C 1011.4 hPa SW 3.2 km/h 8 km/h 53% 0 mm
15:19 3.4 °C -4.8 °C 1011.4 hPa WNW 1.6 km/h 6.4 km/h 55% 0 mm
15:24 3.6 °C -4.7 °C 1011.1 hPa Calm   6.4 km/h 55% 0 mm
15:29 3.5 °C -4.9 °C 1011.4 hPa SW 4.8 km/h 8 km/h 54% 0 mm
15:34 3.7 °C -4.8 °C 1011.4 hPa SW 3.2 km/h 8 km/h 54% 0 mm
15:39 3.5 °C -4.9 °C 1011.4 hPa SSW 3.2 km/h 8 km/h 54% 0 mm
15:44 3.8 °C -4.6 °C 1011.1 hPa SSE 3.2 km/h 8 km/h 54% 0 mm
15:49 3.9 °C -5.1 °C 1011.1 hPa ESE 3.2 km/h 9.7 km/h 52% 0 mm
15:54 3.6 °C -4.7 °C 1011.1 hPa East 3.2 km/h 9.7 km/h 55% 0 mm
15:59 3.6 °C -5.7 °C 1010.7 hPa ENE 1.6 km/h 8 km/h 51% 0 mm
16:04 3.5 °C -5.4 °C 1011.1 hPa East 3.2 km/h 8 km/h 52% 0 mm
16:09 3.6 °C -5.1 °C 1011.1 hPa SSE 4.8 km/h 8 km/h 53% 0 mm
16:14 3.5 °C -5.9 °C 1011.1 hPa SSE 4.8 km/h 6.4 km/h 50% 0 mm
16:19 3.3 °C -5.8 °C 1011.1 hPa South 3.2 km/h 8 km/h 51% 0 mm
16:24 3.3 °C -5.9 °C 1011.1 hPa SSE 3.2 km/h 9.7 km/h 51% 0 mm
16:29 3.4 °C -5.3 °C 1011.1 hPa SE 4.8 km/h 6.4 km/h 53% 0 mm
16:34 3.3 °C -5.8 °C 1011.1 hPa Calm   4.8 km/h 51% 0 mm
16:39 3.2 °C -6 °C 1011.1 hPa South 1.6 km/h 6.4 km/h 51% 0 mm
16:44 3.2 °C -5.7 °C 1011.4 hPa South 1.6 km/h 6.4 km/h 52% 0 mm
16:49 3.2 °C -5.7 °C 1011.1 hPa South 1.6 km/h 3.2 km/h 52% 0 mm
16:54 3.2 °C -5.7 °C 1010.7 hPa South 1.6 km/h 4.8 km/h 52% 0 mm
16:59 3.3 °C -5.3 °C 1010.7 hPa South 3.2 km/h 4.8 km/h 53% 0 mm
17:04 3.3 °C -5.6 °C 1010.7 hPa SE 3.2 km/h 3.2 km/h 52% 0 mm
17:09 3.3 °C -5.4 °C 1010.7 hPa Calm   3.2 km/h 53% 0 mm
17:14 3.2 °C -5.4 °C 1010.7 hPa Calm   3.2 km/h 53% 0 mm
17:19 3.2 °C -5.5 °C 1010.7 hPa Calm   3.2 km/h 53% 0 mm
17:24 3.1 °C -5.6 °C 1010.7 hPa SE 1.6 km/h 3.2 km/h 53% 0 mm
17:29 3.1 °C -5.8 °C 1010.7 hPa Calm     52% 0 mm
17:34 3.1 °C -5.8 °C 1010.7 hPa Calm     52% 0 mm
17:39 3.1 °C -5.6 °C 1010.7 hPa Calm     53% 0 mm
17:44 2.9 °C -5.7 °C 1010.7 hPa Calm     53% 0 mm
17:49 2.9 °C -5.5 °C 1010.7 hPa Calm     54% 0 mm
17:54 2.9 °C -5.5 °C 1010.7 hPa Calm     54% 0 mm
17:59 2.8 °C -5.3 °C 1010.7 hPa Calm     55% 0 mm
18:04 2.7 °C -5.2 °C 1010.7 hPa Calm     56% 0 mm
18:09 2.7 °C -5.2 °C 1010.7 hPa Calm     56% 0 mm
18:14 2.6 °C -5.1 °C 1010.7 hPa Calm     57% 0 mm
18:19 2.5 °C -5.2 °C 1011.1 hPa Calm     57% 0 mm
18:24 2.6 °C -4.9 °C 1010.7 hPa NE 1.6 km/h 8 km/h 58% 0 mm
18:29 2.6 °C -4.8 °C 1010.7 hPa ENE 3.2 km/h 8 km/h 58% 0 mm
18:34 2.6 °C -4.9 °C 1010.7 hPa Calm   4.8 km/h 58% 0 mm
18:39 2.5 °C -4.9 °C 1010.7 hPa ENE 1.6 km/h 4.8 km/h 58% 0 mm
18:44 2.4 °C -4.8 °C 1010.4 hPa East 3.2 km/h 8 km/h 59% 0 mm
18:49 2.3 °C -4.9 °C 1010.4 hPa East 1.6 km/h 8 km/h 59% 0 mm
18:54 2.2 °C -5 °C 1010 hPa East 1.6 km/h 4.8 km/h 59% 0 mm
18:59 2.1 °C -4.9 °C 1010 hPa East 1.6 km/h 4.8 km/h 60% 0 mm
19:04 2 °C -4.9 °C 1010 hPa East 1.6 km/h 4.8 km/h 60% 0 mm
19:09 1.9 °C -4.8 °C 1010 hPa Calm   6.4 km/h 61% 0 mm
19:14 1.9 °C -4.8 °C 1010 hPa Calm     61% 0 mm
19:19 1.8 °C -4.9 °C 1010 hPa Calm   1.6 km/h 61% 0 mm
19:24 1.8 °C -4.9 °C 1010 hPa Calm     61% 0 mm
19:29 1.7 °C -4.8 °C 1010 hPa Calm     62% 0 mm
19:34 1.6 °C -4.9 °C 1010 hPa Calm     62% 0 mm
19:39 1.6 °C -4.9 °C 1010 hPa Calm     62% 0 mm
19:44 1.6 °C -4.9 °C 1009.7 hPa Calm     62% 0 mm
19:49 1.7 °C -4.6 °C 1009.7 hPa Calm   3.2 km/h 63% 0 mm
19:54 1.7 °C -4.8 °C 1009.7 hPa East 1.6 km/h 4.8 km/h 62% 0 mm
19:59 1.6 °C -4.7 °C 1009.7 hPa East 1.6 km/h 4.8 km/h 63% 0 mm
20:04 1.6 °C -4.7 °C 1010 hPa ENE 3.2 km/h 6.4 km/h 63% 0 mm
20:09 1.6 °C -4.7 °C 1009.7 hPa ENE 1.6 km/h 6.4 km/h 63% 0 mm
20:14 1.6 °C -4.9 °C 1010 hPa East 1.6 km/h 6.4 km/h 62% 0 mm
20:19 1.6 °C -4.9 °C 1009.7 hPa East 3.2 km/h 8 km/h 62% 0 mm
20:24 1.6 °C -4.9 °C 1009.7 hPa East 1.6 km/h 8 km/h 62% 0 mm
20:29 1.4 °C -5.1 °C 1009.4 hPa Calm   4.8 km/h 62% 0 mm
20:34 1.4 °C -4.8 °C 1009.4 hPa Calm   4.8 km/h 63% 0 mm
20:39 1.3 °C -4.8 °C 1009.7 hPa ENE 3.2 km/h 6.4 km/h 64% 0 mm
20:44 1.3 °C -4.8 °C 1009.7 hPa NE 6.4 km/h 6.4 km/h 64% 0 mm
20:49 1.2 °C -4.8 °C 1009.7 hPa ENE 3.2 km/h 6.4 km/h 64% 0 mm
20:54 1.2 °C -4.9 °C 1009.4 hPa ENE 3.2 km/h 9.7 km/h 64% 0 mm
20:59 1.1 °C -4.7 °C 1009.4 hPa East 3.2 km/h 9.7 km/h 65% 0 mm
21:04 1.1 °C -4.8 °C 1009.4 hPa East 1.6 km/h 4.8 km/h 65% 0 mm
21:09 1 °C -4.8 °C 1009.4 hPa ESE 1.6 km/h 4.8 km/h 65% 0 mm
21:14 0.9 °C -4.9 °C 1009 hPa ESE 1.6 km/h 8 km/h 65% 0 mm
21:19 0.8 °C -4.8 °C 1009 hPa ESE 3.2 km/h 8 km/h 66% 0 mm
21:24 0.8 °C -4.8 °C 1009 hPa ESE 3.2 km/h 4.8 km/h 66% 0 mm
21:34 0.8 °C -4.8 °C 1009.4 hPa Calm   1.6 km/h 66% 0 mm
21:39 0.8 °C -4.7 °C 1009.4 hPa SE 3.2 km/h 4.8 km/h 67% 0 mm
21:44 0.8 °C -4.8 °C 1009 hPa East 3.2 km/h 4.8 km/h 66% 0 mm
21:49 0.8 °C -4.7 °C 1009 hPa ESE 1.6 km/h 4.8 km/h 67% 0 mm
21:54 0.8 °C -4.7 °C 1009 hPa ESE 1.6 km/h 4.8 km/h 67% 0 mm
21:59 0.7 °C -4.5 °C 1009 hPa ESE 1.6 km/h 4.8 km/h 68% 0 mm
22:04 0.7 °C -4.5 °C 1009 hPa ESE 1.6 km/h 3.2 km/h 68% 0 mm
22:09 0.8 °C -4.4 °C 1008.7 hPa SE 1.6 km/h 4.8 km/h 68% 0 mm
22:14 0.8 °C -4.4 °C 1009 hPa ESE 1.6 km/h 4.8 km/h 68% 0 mm
22:19 0.7 °C -4.5 °C 1008.7 hPa Calm   1.6 km/h 68% 0 mm
22:24 0.8 °C -4.4 °C 1008.4 hPa Calm   3.2 km/h 68% 0 mm
22:29 0.9 °C -4.3 °C 1008.4 hPa SE 1.6 km/h 4.8 km/h 68% 0 mm
22:34 0.9 °C -4.3 °C 1008.4 hPa SE 1.6 km/h 4.8 km/h 68% 0 mm
22:39 0.9 °C -4.3 °C 1008.4 hPa Calm   1.6 km/h 68% 0 mm
22:44 1 °C -4.2 °C 1008 hPa Calm   1.6 km/h 68% 0 mm
22:49 1 °C -4.2 °C 1008 hPa Calm     68% 0 mm
22:54 0.9 °C -4.1 °C 1008 hPa Calm   1.6 km/h 69% 0 mm
22:59 1 °C -4.1 °C 1008 hPa Calm     69% 0 mm
23:04 1 °C -4.1 °C 1007.7 hPa Calm     69% 0 mm
23:09 1 °C -4.1 °C 1007.7 hPa ESE 1.6 km/h 4.8 km/h 69% 0 mm
23:14 1 °C -4.1 °C 1007.7 hPa ESE 1.6 km/h 3.2 km/h 69% 0 mm
23:19 1 °C -3.9 °C 1007.3 hPa ESE 1.6 km/h 3.2 km/h 70% 0 mm
23:24 1.1 °C -4 °C 1007.3 hPa Calm   3.2 km/h 69% 0 mm
23:29 1.2 °C -3.9 °C 1007.3 hPa Calm   1.6 km/h 69% 0 mm
23:39 1.3 °C -3.8 °C 1007.3 hPa Calm   3.2 km/h 69% 0 mm
23:49 1.4 °C -3.6 °C 1007.3 hPa Calm     69% 0 mm
23:54 1.4 °C -3.6 °C 1007.3 hPa Calm     69% 0 mm
23:59 1.6 °C -3.5 °C 1007.3 hPa Calm   3.2 km/h 69% 0 mm
Buffalo, New York, USA
Compliments of Weather Underground - 2.5 mb